ICEYE-X38

导读 | 豆包AI

ICEYE-X38是由芬兰卫星企业ICEYE制造的合成孔径雷达(SAR)卫星,于2024年3月4日发射入轨,属于ICEYE不断扩张的全球最大SAR卫星星座的组成部分。该卫星采用X波段技术,可提供最高25厘米分辨率的全天候、全天时地球观测影像,不受光照和气象条件影响。它将服务于商业对地观测任务,可助力灾害监测、资源勘探、国家安全等领域,为客户提供及时精准的地理空间信息支持,进一步提升ICEYE星座重访与观测能力。

基本信息
目录编号:
59100
目录名称:
ICEYE-X38
国际标识:
2024-043C
轨道中心:
EARTH
卫星名称:
ICEYE-X38
卫星全名:
--
卫星状态:
在轨 (已飞行761 天)
发射日期:
2024-03-04 UTC
国别 :
(FI)
星等 :
--
轨道信息
数据来源 国际轨道数据
星历时间: 2026-04-04T05:20:24+0800
6小时前
查看轨道信息
半长轴: 6907.798km
偏心率: 0.0002106
轨道倾角: 97.829°
近地点辐角 6.668°
升交点赤经 235.679°
平近点角 353.458°
近地点: 528.206km
远地点: 531.116km
周期: 95.229分钟
每日圈数: 15.121447
详细信息
使用方式:
暂无
2D轨道图
3D轨道图
轨道高度分析图
轨道倾角分析图
轨道综合分析图
查看轨道综合分析图